Regional Weather Roundup
Issued by NWS

Home | Current Version | Previous Version | Graphics & Text | Print | Product List | Glossary On
Versions: 1 2 3 4 5 6 7 8 9 10 11 12 13 14 15 16 17 18 19 20 21 22 23 24 25 26 27 28 29 30 31 32 33 34 35 36 37 38 39 40 41 42 43 44 45 46 47 48 49 50
417
ASUS45 KBOU 240910
RWRCO

WEATHER ROUNDUP FOR COLORADO
NATIONAL WEATHER SERVICE DENVER/BOULDER CO
200 AM MST FRI NOV 24 2017

NOTE: "FAIR" INDICATES FEW OR NO CLOUDS BELOW 12000 FEET WITH NO
SIGNIFICANT WEATHER AND/OR OBSTRUCTIONS TO VISIBILITY.

COZ001>005-013-030-031-241000-
...NORTHWEST COLORADO...

CITY           SKY/WX    TMP DP  RH WIND       PRES   REMARKS
CRAIG          FAIR      32  29  88 CALM      30.08F
HAYDEN         FAIR      35  31  85 E10       30.09F WCI  27
MEEKER         FAIR      38  31  76 NE7       30.10F
RABBIT EARS PA FAIR      32  28  86 W9        30.21F WCI  24
STEAMBOAT SPGS FAIR      31  31  99 CALM      30.10F
WALDEN         FAIR      41  25  52 SE14      30.11F
$$

COZ006>008-011-241000-
...WEST CENTRAL VALLEYS...

CITY           SKY/WX    TMP DP  RH WIND       PRES   REMARKS
GRAND JUNCTION FAIR      41  33  73 E5        30.10F
MONTROSE       FAIR      35  26  69 S10       30.18F WCI  27
EAGLE          FAIR      30  26  85 SE3       30.18F
RIFLE          FAIR      35  33  92 CALM      30.14F
DELTA          FAIR      37  28  71 NE5       30.15F
NUCLA          FAIR      37  21  52 SE9       30.20F
$$

COZ017>023-064>068-241000-
...SOUTHWEST COLORADO...

CITY           SKY/WX    TMP DP  RH WIND       PRES   REMARKS
DURANGO        FAIR      30  24  78 CALM      30.21F
CORTEZ         FAIR      28  22  78 E6        30.20F WCI  22
PAGOSA SPRINGS FAIR      30  27  90 CALM      30.24F
TELLURIDE      FAIR      39  15  37 SE5       30.31F
WOLF CREEK PAS FAIR      32  19  59 SW9       30.43F WCI  24
$$

COZ009-010-012-014-032>034-037-058>063-241000-
...CENTRAL COLORADO...

CITY           SKY/WX    TMP DP  RH WIND       PRES   REMARKS
ASPEN          FAIR      31  23  72 S6        30.18F WCI  25
BUENA VISTA    FAIR      46  15  29 W7        30.12R
COPPER MTN     NOT AVBL
BERTHOUD PASS  FAIR      30  19  64 W47G56    30.24F WCI  12
COTTONWOOD PAS FAIR      50  10  20 NW15G29   30.15S
GUNNISON       FAIR      22  21  96 CALM      30.26R
KREMMLING      FAIR      34  30  86 CALM      30.14F
LEADVILLE      FAIR      37  10  32 NE12G20   30.22F
MONARCH PASS   FAIR      32  16  51 W38G46    30.43R WCI  16
SALIDA         FAIR      54  16  22 SW15G25   30.15F
SUNLIGHT       MOCLDY    34  19  55 SW16G24   30.32F WCI  23
WILKERSON PASS FAIR      37   0  20 W22G37    30.20F
$$

COZ069>075-241000-
...SAN LUIS VALLEY/SANGRE DE CRISTO MOUNTAINS...

CITY           SKY/WX    TMP DP  RH WIND       PRES   REMARKS
ALAMOSA        FAIR      19  15  84 CALM      30.18F
DEL NORTE      FAIR      31  17  55 CALM      30.20S
LA VETA PASS   FAIR      36  25  64 SW18G31     N/A
SAGUACHE       FAIR      28  19  69 CALM      30.20F
$$

COZ035-036-038>040-241000-
...NORTHERN COLORADO FRONT RANGE...

CITY           SKY/WX    TMP DP  RH WIND       PRES   REMARKS
DENVER INTL AP FAIR      63  19  18 W12       29.87F
DMNS CITY PARK   N/A     51  20  30 SW8       29.87S
AURORA         PTCLDY    54  20  27 NW8       29.88F
FRONT RANGE AP FAIR      54  23  30 W9        29.88F
ERIE MUNI ARPT FAIR      50  23  35 N3        29.90S
BOULDER MUN AP FAIR      55  25  30 E6        29.84F
CENTENNIAL     FAIR      49  21  33 S10       29.90F
BROOMFIELD     FAIR      63  19  19 NW12G24   29.88F
FORT COLLINS   FAIR      46  31  55 E9        29.82F
LONGMONT       FAIR      66  21  18 SW17      29.83F
$$

COZ041-046-047-076>085-087-088-241000-
...PIKES PEAK/PALMER DIVIDE AND SOUTHERN FOOTHILLS...

CITY           SKY/WX    TMP DP  RH WIND       PRES   REMARKS
COLO. SPRINGS  FAIR      55  16  21 N8        29.95F
A. F. ACADEMY  FAIR      55  11  17 NE8       29.96F
SCHRIEVER AFB  FAIR      60   9  13 N10       29.96F
CHEYENNE MTN   FAIR      56  15  20 W5        29.94S
ELLICOTT         N/A    N/A N/A N/A N5        29.94F
FALCON         FAIR      46  12  25 NW8       30.00S
FORT CARSON    FAIR      44  23  42 NW7       29.93F
LIMON          FAIR      31  25  78 N6        29.89F WCI  25
MONUMENT HILL  FAIR      46  18  31 SW10      30.00F
CANON CITY     FAIR      55  21  26 NW10      29.93S
WALSENBURG     FAIR      59  27  29 W21G33    29.98F
TRINIDAD       FAIR      50  25  37 W12       29.97F
$$

COZ042>045-048>051-090-091-241000-
...NORTHEAST COLORADO...

CITY           SKY/WX    TMP DP  RH WIND       PRES   REMARKS
GREELEY ARPT   FAIR      38  30  73 CALM      29.84S
AKRON          FAIR      49  26  41 SW10      29.82F
BURLINGTON     FAIR      42  33  70 W12       29.83F
WRAY           NOT AVBL
YUMA           FAIR      45  30  57 SW9       29.79F
STERLING       MOCLDY    45  32  61 SW9       29.79S
HOLYOKE        FAIR      45  30  57 W7        29.78F
FORT MORGAN    FAIR      44  26  47 CALM      29.83F
$$

COZ086-089-092>099-241000-
...SOUTHEAST COLORADO...

CITY           SKY/WX    TMP DP  RH WIND       PRES   REMARKS
PUEBLO         FAIR      55  22  27 W13       29.88F
LA JUNTA       FAIR      47  28  47 W9        29.86S
LAMAR          FAIR      39  30  70 SW9       29.82F
SPRINGFIELD      N/A     40  29  64 SW3       29.85F
$$




USA.gov is the U.S. government's official web portal to all federal, state and local government web resources and services.